GEFSSE_con_probscp_180.txt.gz
Probability
0 1 1 2 3 3 3 3 3 3 3 2 1 0 0 0 1 2 3 3 3 3 3 3 3 3 3 3 3 3 3 3 3 3 3 3 3 2 2 1 0 1 2
1 2 2 2 2 2 3 3 3 3 3 3 1 0 0 0 1 2 3 3 3 3 3 3 3 3 3 3 3 3 3 3 3 3 3 3 2 1 1 0 0 1 2
3 3 2 1 1 1 1 3 3 3 3 3 2 1 0 0 0 2 3 3 3 3 3 3 3 3 3 3 3 3 3 3 3 3 2 1 1 0 0 0 0 0 1
3 3 2 1 1 1 1 2 3 3 3 3 3 2 1 0 1 2 3 3 3 3 3 3 3 3 3 2 2 2 2 2 2 1 1 0 0 0 0 0 0 0 0
3 2 1 1 2 2 1 1 2 3 3 3 3 3 1 1 2 3 3 3 3 3 3 3 3 2 1 1 1 1 1 1 1 0 0 0 0 0 0 0 0 0 0
3 3 2 3 3 3 2 1 1 2 3 3 3 2 1 1 1 2 2 2 2 2 2 2 1 1 0 0 0 0 0 0 0 0 0 0 0 0 0 0 0 0 0
4 3 3 3 3 2 2 2 1 1 3 3 3 2 1 0 0 1 1 1 1 1 1 1 0 0 0 0 0 0 0 0 0 0 0 0 0 0 0 0 0 0 0
5 4 3 3 3 2 3 3 3 2 3 3 3 3 2 1 0 0 0 0 1 1 0 0 0 0 0 0 0 1 1 1 0 0 0 0 0 0 0 0 0 0 0
5 5 4 3 3 3 3 4 4 3 3 3 3 3 3 2 1 0 0 0 1 1 0 0 0 0 0 0 1 2 2 2 1 0 0 1 1 1 1 1 1 1 0
4 4 3 3 3 3 3 4 4 4 4 3 3 3 3 3 2 1 0 0 0 0 0 0 0 0 0 0 1 2 3 2 1 0 1 2 2 2 2 2 2 2 1
3 3 3 3 3 3 3 3 4 4 4 4 3 3 3 3 2 1 0 0 0 0 0 0 0 0 0 0 0 1 1 2 2 1 1 2 3 3 3 3 3 3 3
3 3 4 3 3 3 2 2 3 3 4 3 3 3 3 2 1 0 0 1 1 1 0 0 0 0 0 0 0 0 1 2 2 1 0 1 3 3 3 3 3 3 3
4 4 4 3 3 2 1 1 1 2 3 3 3 3 3 2 1 1 1 2 2 2 1 0 0 0 0 0 0 0 1 1 2 1 1 1 2 3 3 3 3 3 3
5 4 4 2 1 1 0 0 0 1 2 3 3 3 3 3 3 2 3 3 3 2 1 1 1 1 0 0 0 0 0 1 1 2 1 1 2 3 3 3 3 3 3
6 5 3 1 0 0 0 0 0 0 1 2 3 3 3 3 3 3 3 3 2 1 1 2 2 2 1 1 0 0 1 1 2 3 2 2 2 3 3 3 3 3 3
5 4 3 1 0 1 0 0 0 0 0 1 1 2 3 3 3 3 3 3 3 2 3 3 3 3 3 2 1 1 2 3 3 3 3 3 3 3 3 3 3 3 3
4 4 3 3 2 1 0 0 1 2 1 0 0 1 3 3 3 3 3 3 3 3 3 3 3 3 3 3 3 3 3 3 3 3 3 3 3 3 3 3 3 3 3
7 6 6 6 5 3 2 2 3 3 2 0 0 1 2 3 3 3 3 3 3 3 3 3 3 3 3 3 3 3 3 3 3 3 3 3 3 3 3 3 3 3 3
12 9 8 8 7 6 5 5 5 3 1 0 0 1 2 2 1 2 3 3 3 3 3 3 3 3 3 3 3 3 3 3 3 3 3 3 3 3 3 3 3 3 3
18 15 12 11 8 7 6 6 5 3 1 0 0 0 1 1 1 1 1 2 2 2 3 3 3 2 3 3 3 3 3 2 2 2 3 3 3 3 3 3 3 3 3
24 22 19 15 10 8 7 6 5 4 2 1 0 0 0 0 0 0 0 1 1 1 1 2 2 3 3 3 3 2 1 1 1 1 1 2 2 2 2 3 3 3 3
29 29 26 20 12 9 8 7 5 4 4 3 2 1 0 0 0 0 0 0 0 0 0 1 1 2 2 2 2 1 0 0 0 0 0 1 1 1 1 1 2 3 3
31 29 26 20 12 9 8 7 6 6 6 5 4 2 1 1 1 1 0 0 0 0 0 0 0 1 1 1 1 0 0 0 0 0 0 0 0 0 0 0 1 2 2
27 25 22 17 11 8 7 6 6 6 6 5 4 3 3 2 2 2 1 1 1 0 0 0 0 0 0 0 0 0 0 0 0 0 0 0 0 0 0 0 0 1 1
20 20 19 17 12 8 7 7 7 6 5 4 3 3 3 3 3 3 3 2 2 1 1 1 0 0 0 0 0 0 0 0 0 0 0 0 0 0 0 0 0 0 0
16 17 18 17 13 9 7 8 8 6 4 3 3 3 3 3 3 3 3 3 3 2 2 2 1 0 0 0 0 0 0 0 0 0 0 0 0 0 0 0 0 0 0

GEFSSE_con_probscp_186.txt.gz
Probability
0 0 0 0 0 0 0 0 0 0 0 0 0 0 0 0 0 0 0 0 0 0 0 0 0 0 0 0 0 0 0 0 0 0 0 0 0 0 0 0 0 0 0
0 0 0 0 0 0 0 0 0 0 0 0 0 0 0 0 0 0 0 0 0 0 0 0 0 0 0 0 0 0 0 0 0 0 0 0 0 0 0 0 0 0 0
0 0 0 0 0 0 0 0 0 0 0 0 0 0 0 0 0 0 0 0 0 0 0 0 0 0 0 0 0 0 0 0 0 0 0 0 0 0 0 0 0 0 0
0 0 0 0 0 0 0 0 0 0 0 0 0 0 0 0 0 0 0 0 0 0 0 0 0 0 0 0 0 0 0 0 0 0 0 0 0 0 0 0 0 0 0
0 0 0 0 0 0 0 0 0 0 0 0 0 0 0 0 0 0 0 0 0 0 0 0 0 0 0 0 0 0 0 0 0 0 0 0 0 0 0 0 0 0 0
0 0 0 0 0 0 0 0 0 0 0 0 0 0 0 0 0 0 0 0 0 0 0 0 0 0 0 0 0 0 0 0 0 0 0 0 0 0 0 0 0 0 0
0 0 0 0 0 0 0 0 0 0 0 0 0 0 0 0 0 0 0 0 0 0 0 0 0 0 0 0 0 0 0 0 0 0 0 0 0 0 0 0 0 0 0
0 0 0 0 0 0 0 0 0 0 0 0 0 0 0 0 0 0 0 0 0 0 0 0 0 0 0 0 0 0 0 0 0 0 0 0 0 0 0 0 0 0 0
0 0 0 0 0 0 0 0 0 0 0 0 0 0 0 0 0 0 0 0 0 0 0 0 0 0 0 0 0 0 0 0 0 0 0 0 0 0 0 0 0 0 0
0 0 0 0 0 0 0 0 0 0 0 0 0 0 0 0 0 0 0 0 0 0 0 0 0 0 0 0 0 0 0 0 0 0 0 0 0 0 0 0 0 0 0
0 0 0 0 0 0 0 0 0 0 0 0 0 0 0 0 0 0 0 0 0 0 0 0 0 0 0 0 0 0 0 0 0 0 0 0 0 0 0 0 0 0 0
1 1 1 1 1 1 1 0 1 1 0 0 0 0 0 0 0 0 0 0 0 0 0 0 0 0 0 0 0 0 0 0 0 0 0 0 0 0 0 0 0 0 0
2 2 1 1 2 2 2 2 2 2 1 1 0 0 0 0 0 0 0 0 0 0 0 0 0 0 0 0 0 0 0 0 0 0 0 0 0 0 0 0 0 0 0
4 3 1 1 1 3 3 3 3 2 2 1 0 0 0 0 0 0 0 0 0 0 0 0 0 0 0 0 0 0 0 0 0 0 0 0 0 0 0 0 0 0 0
6 4 2 1 2 3 3 3 3 1 1 1 0 0 0 0 0 0 0 0 0 0 0 0 0 0 0 0 0 0 0 0 0 0 0 0 0 0 0 0 0 0 0
9 7 6 5 4 4 3 3 3 1 0 0 0 0 0 0 0 0 0 0 0 0 0 0 0 0 0 0 0 0 0 0 0 0 0 0 0 0 0 0 0 0 0
11 11 10 8 7 7 6 5 4 2 1 0 0 0 0 0 0 0 0 0 0 0 0 0 0 0 0 0 0 0 0 0 0 0 0 0 0 0 0 0 0 0 0
12 13 13 11 10 10 10 9 7 4 1 0 0 0 0 0 0 0 0 0 0 0 0 0 0 0 0 0 0 0 0 0 0 0 0 0 0 0 0 0 0 0 0
14 16 17 16 15 13 12 11 10 6 2 0 0 0 0 0 0 0 0 0 0 0 0 0 0 0 0 0 0 0 0 0 0 0 0 0 0 0 0 0 0 0 0
19 20 22 22 20 17 14 13 10 6 3 1 0 0 0 0 0 0 1 1 1 0 0 0 0 0 0 0 0 0 0 0 0 0 0 0 0 0 0 0 0 0 0
25 26 27 26 24 22 18 14 10 7 4 3 1 0 0 0 0 1 1 2 2 1 0 0 0 0 0 0 0 0 0 0 0 0 0 0 0 0 0 0 0 0 0
31 31 29 26 24 23 20 16 11 8 6 5 3 2 2 1 1 1 1 2 3 2 1 1 0 0 0 0 0 1 1 0 0 0 0 0 0 0 0 0 0 0 0
35 33 30 25 22 20 18 16 13 9 8 7 5 3 3 3 2 1 1 1 2 2 2 1 1 1 1 1 1 2 2 2 1 1 0 0 0 0 0 0 0 0 1
31 31 30 27 24 19 16 15 13 9 6 4 3 2 3 3 3 1 0 0 1 1 1 1 2 3 4 3 3 3 3 3 2 1 0 0 0 0 0 0 0 0 1
24 25 27 29 26 20 15 13 12 9 5 3 1 2 3 3 3 1 0 1 2 3 2 2 4 5 6 5 5 5 4 3 2 1 0 0 0 0 0 0 0 1 1
19 20 23 27 26 21 15 12 11 10 7 4 2 2 3 3 2 1 0 1 4 4 3 3 5 6 6 6 6 6 5 4 2 1 0 0 1 1 1 0 1 2 2

GEFSSE_con_probscp_192.txt.gz
Probability
0 0 0 0 0 0 0 0 0 0 0 0 0 0 0 0 0 0 0 0 0 0 0 1 1 1 0 0 1 2 1 0 1 1 1 0 0 0 0 0 0 0 0
0 0 0 0 0 0 0 0 0 0 0 0 0 0 0 0 0 0 0 0 0 0 0 0 0 0 0 0 1 2 1 0 0 0 0 0 0 0 0 0 0 0 0
0 0 0 0 0 0 0 0 0 0 0 0 0 0 0 0 0 0 0 0 0 0 0 0 0 0 0 0 1 1 1 0 0 0 0 0 0 0 0 0 0 0 0
1 0 0 0 0 0 0 0 0 0 0 0 0 0 0 0 0 0 0 0 0 0 0 0 0 0 0 0 0 0 0 0 0 0 0 0 0 0 0 0 0 0 0
1 0 0 0 0 0 0 0 0 0 0 0 0 0 0 0 0 0 0 0 0 0 0 0 0 0 0 0 0 0 0 0 0 0 0 0 0 0 0 0 0 0 0
1 0 0 0 0 0 0 0 0 0 0 0 0 0 0 0 0 0 0 0 0 0 0 0 0 0 0 0 0 0 0 0 0 0 0 0 0 0 0 0 0 0 0
1 0 0 0 0 0 0 0 0 0 0 0 0 0 0 0 0 0 0 0 0 0 0 0 0 0 0 0 0 0 0 0 0 0 0 0 0 0 0 0 0 0 0
3 2 1 2 2 1 0 0 0 0 0 0 0 0 0 0 0 0 0 0 0 0 0 0 0 0 0 0 0 0 0 0 0 0 0 0 0 0 0 0 0 0 0
5 3 3 4 4 4 2 1 0 0 0 0 0 0 0 0 0 0 0 0 0 0 0 0 0 0 0 0 0 0 0 0 0 0 0 0 0 0 0 0 0 0 0
5 3 3 2 3 4 4 3 1 0 0 0 0 0 0 0 0 0 0 0 0 0 0 0 0 0 0 0 0 0 0 0 0 0 0 0 0 0 0 0 0 0 0
5 4 2 1 1 3 4 4 2 1 0 0 0 0 0 0 0 0 0 0 0 0 0 0 0 0 0 0 0 0 0 0 0 0 0 0 0 0 0 0 0 0 0
6 5 3 1 1 2 3 3 2 1 0 0 0 0 0 0 0 0 0 0 0 0 0 0 0 0 0 0 0 0 0 0 0 0 0 0 0 0 0 0 0 0 0
6 5 3 2 3 4 4 3 2 1 0 0 0 0 0 0 0 0 0 0 0 0 0 0 0 0 0 0 0 0 0 0 0 0 0 0 0 0 0 0 0 0 0
7 6 4 5 6 6 5 4 3 1 0 0 0 0 0 0 0 0 0 0 0 0 0 0 0 0 0 0 0 0 0 0 0 0 0 0 0 0 0 0 0 0 0
9 8 8 8 8 8 5 4 4 2 0 0 0 0 0 0 0 0 0 0 0 0 0 0 0 0 0 0 0 0 0 0 0 0 0 0 0 0 0 0 0 0 0
14 14 11 9 10 10 8 6 5 3 1 0 0 0 0 0 0 0 0 0 0 0 0 0 0 0 0 0 0 0 0 0 0 0 0 0 0 0 1 1 1 1 0
21 20 14 9 11 14 12 9 6 3 2 1 1 1 0 0 0 0 0 0 0 1 1 1 1 1 1 1 1 1 0 0 0 0 1 1 1 1 2 2 2 2 1
32 30 22 15 16 17 16 13 7 4 4 4 3 2 1 1 1 0 0 0 1 2 2 2 2 2 2 2 2 1 1 0 0 1 2 4 3 2 3 3 4 3 2
42 40 31 24 22 20 18 15 10 6 6 6 5 4 3 2 2 1 1 1 2 2 3 3 3 2 2 1 1 1 1 0 0 1 3 4 4 4 4 4 4 3 2
48 45 37 32 27 23 20 18 14 9 7 6 6 5 4 4 4 3 2 2 2 1 1 2 3 3 3 2 1 1 1 0 1 2 3 3 4 5 5 6 7 5 3
55 51 45 39 33 28 24 20 17 12 9 8 9 9 7 5 4 3 3 4 3 1 1 2 2 3 3 3 3 2 1 0 1 1 2 2 2 2 5 9 11 8 5
63 59 53 45 38 32 28 24 20 16 13 12 14 14 11 8 6 4 5 6 5 3 2 2 3 3 2 2 2 2 1 0 0 0 1 1 2 1 2 7 12 11 8
66 64 59 51 42 35 30 25 21 18 16 16 18 18 15 11 9 7 7 10 9 5 2 2 3 4 2 1 2 1 1 1 0 0 0 2 2 1 1 4 8 10 9
61 63 64 58 47 37 31 26 21 18 16 17 18 18 16 13 11 11 11 13 12 7 4 2 2 4 3 3 3 3 2 2 1 1 0 1 1 1 2 2 4 7 8
54 59 64 63 53 42 34 28 23 17 14 16 17 17 15 13 13 14 13 13 13 11 8 5 3 3 3 4 4 4 3 3 3 2 1 1 0 1 3 4 5 6 7
52 55 60 63 57 47 38 31 24 16 12 14 16 17 15 14 15 15 13 12 12 13 11 9 6 4 3 4 4 4 3 3 3 3 2 2 1 1 2 5 7 8 9

GEFSSE_con_probscp_198.txt.gz
Probability
3 3 3 3 3 3 3 3 3 3 3 3 3 3 3 3 3 3 3 3 3 3 3 3 3 3 3 3 3 3 3 3 3 3 3 3 3 3 3 3 3 3 3
3 3 3 3 3 3 3 3 3 3 3 3 3 3 3 3 3 3 3 3 3 3 3 3 3 3 3 3 3 3 3 3 3 3 3 3 3 3 3 3 3 3 3
3 3 3 3 3 3 3 3 3 3 3 3 3 3 3 3 3 3 3 3 3 3 3 3 3 3 3 3 3 3 3 3 3 3 3 3 3 3 3 3 3 3 3
3 3 3 3 3 3 3 3 3 3 3 3 3 3 3 3 3 3 3 3 3 3 3 3 3 3 3 3 3 3 3 3 3 3 3 3 3 3 3 3 3 3 3
3 3 3 3 3 3 3 3 3 3 3 3 3 3 3 3 3 3 3 3 3 3 3 3 3 3 3 3 3 3 3 3 3 2 1 2 3 3 3 3 3 3 3
3 3 3 4 3 3 3 3 3 3 3 3 3 3 3 3 3 3 3 3 3 3 3 3 3 3 3 3 3 3 3 3 2 2 1 2 3 3 3 3 3 3 3
3 3 4 5 4 4 3 3 3 3 3 3 3 3 3 3 3 3 3 3 3 3 3 3 3 3 3 3 3 3 3 3 2 2 3 3 3 3 3 3 3 3 3
4 4 5 6 6 5 4 3 3 3 3 3 3 3 3 3 3 3 3 3 3 3 3 3 3 3 3 3 3 3 3 3 3 3 3 3 3 3 3 3 3 3 3
5 6 6 6 6 6 5 4 3 3 3 3 3 3 3 3 3 3 3 3 3 3 3 3 3 3 3 3 3 3 3 3 3 3 3 3 3 3 3 3 3 3 3
5 5 6 6 6 6 5 5 4 3 3 3 3 3 3 3 3 3 3 3 3 3 3 3 3 3 3 3 3 3 3 3 3 3 3 3 3 3 3 3 3 3 3
4 5 6 6 5 5 5 4 3 3 3 3 3 3 3 3 3 3 3 3 3 3 3 3 3 3 3 3 3 3 3 3 3 3 3 3 3 3 3 3 3 3 3
5 6 7 7 6 6 5 4 3 3 3 3 2 2 2 2 2 3 3 3 3 3 3 3 3 3 3 2 2 3 3 3 3 3 3 3 3 3 3 3 3 3 3
9 10 9 8 8 7 6 4 2 3 3 3 2 2 2 1 1 3 3 3 3 3 3 3 3 3 1 1 1 1 2 3 3 3 3 3 3 3 3 3 3 3 3
14 14 12 10 10 9 8 5 3 3 3 3 3 3 2 2 2 3 3 3 3 3 3 3 3 2 1 0 0 0 1 2 3 3 3 3 3 3 3 3 3 3 3
16 16 14 13 13 12 10 7 4 3 3 3 3 3 3 3 3 3 3 2 2 3 3 3 3 2 1 0 0 0 0 1 2 3 3 3 4 4 4 4 4 3 3
17 17 16 15 14 14 12 8 5 3 3 3 3 3 3 3 3 3 3 2 2 3 3 3 3 1 0 0 0 0 0 0 1 3 3 4 4 5 5 5 5 3 2
18 18 17 15 14 14 13 8 5 4 3 3 3 3 3 3 3 3 3 2 2 3 2 2 2 1 0 0 0 0 0 0 1 2 3 3 4 4 5 6 5 3 2
20 18 16 15 14 13 11 8 5 4 4 3 3 3 3 3 3 3 2 2 2 1 1 1 1 0 0 0 0 0 0 0 1 3 3 3 3 3 4 5 6 5 4
23 18 14 14 14 12 11 8 5 4 5 4 3 3 3 3 3 2 1 1 1 0 0 0 0 0 0 0 0 0 0 0 2 3 3 3 2 3 3 4 5 6 5
24 20 15 14 14 13 12 9 7 6 6 5 4 3 3 3 3 2 0 0 0 0 0 0 0 0 0 0 0 0 0 0 1 2 2 1 1 1 2 3 3 4 4
29 25 20 18 16 15 14 11 9 8 8 7 6 4 3 3 3 2 1 0 0 0 0 0 0 0 1 1 1 0 0 0 0 1 1 0 0 0 1 1 2 2 2
37 33 28 25 21 19 17 14 11 10 10 9 8 5 3 3 3 3 3 1 1 1 0 0 0 0 1 2 2 1 0 0 0 0 0 0 0 0 0 0 0 0 1
42 38 34 29 25 23 20 16 13 11 11 10 9 6 4 3 4 4 5 3 2 1 1 1 0 1 1 2 2 1 0 0 0 0 0 0 0 0 0 0 0 0 0
41 39 34 29 26 23 21 18 14 12 11 10 8 6 4 4 5 5 5 4 3 2 3 3 2 2 2 2 2 1 1 0 0 0 0 0 0 0 0 0 0 0 0
39 38 33 29 25 22 19 17 14 12 9 9 8 7 5 5 5 5 5 5 5 5 6 6 5 5 5 4 3 2 2 1 0 0 0 0 0 0 0 0 0 0 0
39 37 33 30 26 22 19 15 13 11 8 7 8 7 6 5 5 6 6 7 8 8 8 7 6 6 6 5 4 3 3 2 1 0 0 0 0 0 0 0 0 0 0

GEFSSE_con_probscp_204.txt.gz
Probability
0 0 0 0 0 0 0 0 0 0 0 0 0 0 0 0 0 0 1 2 2 1 0 0 0 0 0 0 0 0 0 0 0 0 0 0 0 0 0 0 0 0 0
0 0 0 0 0 0 0 0 0 0 0 0 0 0 0 0 0 0 0 1 1 0 0 0 0 0 0 0 0 0 0 0 0 0 0 0 0 0 0 0 0 0 0
0 0 0 0 0 0 0 0 0 0 0 0 0 0 0 0 0 0 0 0 0 0 0 0 0 0 0 0 0 0 0 0 0 0 0 0 0 0 0 0 0 0 0
0 0 0 0 0 0 0 0 0 0 0 0 0 0 0 0 0 0 0 0 0 0 0 0 0 0 0 0 0 0 0 0 0 0 0 0 0 0 0 0 0 0 0
0 0 0 0 0 0 0 0 0 0 0 0 0 0 0 0 0 0 0 0 0 0 0 0 0 0 0 0 0 0 0 0 0 0 0 0 0 0 0 0 0 0 0
0 0 0 0 0 0 0 0 0 0 0 0 0 0 0 0 0 0 0 0 0 0 0 0 0 0 0 0 0 0 0 0 0 0 0 0 0 0 0 0 0 0 0
0 0 0 0 0 0 0 0 0 0 0 0 0 0 0 0 0 0 0 0 0 0 0 0 0 0 0 0 0 0 0 0 0 0 0 0 0 0 0 0 0 0 0
0 0 0 0 1 0 0 0 0 0 0 0 0 0 0 0 0 0 0 0 0 0 0 0 0 0 0 0 0 0 0 0 0 0 0 0 0 0 0 0 0 0 0
0 0 0 0 0 0 0 0 0 0 0 0 0 0 0 0 0 0 0 0 0 0 0 0 0 0 0 0 0 0 0 0 0 0 0 0 0 0 0 0 0 0 0
0 0 0 0 0 0 0 0 0 0 0 0 0 0 0 0 0 0 0 0 0 0 0 0 0 0 0 0 0 0 0 0 0 0 0 0 0 0 0 0 0 0 0
0 0 1 1 1 0 0 0 0 0 0 0 0 0 0 0 0 0 0 0 0 0 0 0 0 0 0 0 0 0 0 0 0 0 0 0 0 0 0 0 0 0 0
1 1 2 2 2 1 0 0 0 0 0 0 0 0 0 0 0 0 0 0 0 0 0 0 0 0 0 0 0 0 0 0 0 0 0 0 0 0 0 0 0 0 0
2 3 3 3 2 1 0 0 0 0 0 0 0 0 0 0 0 0 0 0 0 0 0 0 0 0 0 0 0 0 0 0 0 0 0 0 0 0 0 0 0 0 0
5 4 4 3 1 0 0 0 0 0 0 0 0 0 0 0 0 0 0 0 0 0 0 0 0 0 0 0 0 0 0 0 0 0 0 0 0 0 0 0 0 0 0
7 5 3 2 0 0 0 0 0 0 0 0 0 0 0 0 0 0 0 0 0 0 0 0 0 0 0 0 0 0 0 0 0 0 0 0 0 0 0 0 0 0 0
7 6 3 1 1 1 0 0 0 0 0 0 0 0 0 0 0 0 0 0 0 0 0 0 0 0 0 0 0 0 0 0 0 0 0 0 0 0 0 0 0 0 0
6 5 3 2 2 2 1 0 0 0 0 0 0 0 0 0 0 0 0 0 0 0 0 0 0 0 0 0 0 0 0 0 0 0 0 0 0 0 0 0 0 0 0
6 5 4 3 3 3 2 1 0 0 0 0 0 0 0 0 0 0 0 0 0 0 0 0 0 0 0 0 0 0 0 0 0 0 0 0 0 0 0 0 0 0 0
6 6 4 4 4 3 2 1 0 0 0 0 0 0 0 0 0 0 0 0 0 0 0 0 0 0 0 0 0 0 0 0 0 0 0 0 0 0 0 0 1 0 0
6 5 4 4 4 4 3 2 1 1 1 0 0 0 0 0 0 0 0 0 0 0 0 0 0 0 0 0 0 0 0 0 0 0 0 0 0 0 0 0 0 0 0
4 4 4 5 6 5 5 4 3 3 2 0 0 0 0 0 0 0 0 0 0 0 0 0 0 0 0 0 0 0 0 0 0 0 0 0 0 0 0 0 0 0 0
4 5 6 7 7 6 6 5 5 3 1 0 0 0 0 0 0 0 0 0 0 0 0 0 0 0 0 0 0 0 0 0 0 0 0 0 0 0 0 0 0 0 0
6 8 9 7 6 5 6 6 5 3 2 0 0 0 0 0 1 1 0 0 0 0 1 1 1 1 0 0 0 0 0 0 0 0 0 0 0 0 0 0 0 1 1
10 10 10 7 4 3 5 5 4 4 3 1 0 0 0 0 1 1 0 0 0 1 3 3 2 1 1 1 0 0 0 0 0 0 0 0 0 0 0 0 0 0 0
12 12 10 7 3 2 3 4 3 3 3 2 1 0 0 0 1 1 0 1 1 2 5 5 4 3 3 2 1 0 0 0 0 0 0 0 0 0 0 0 0 0 0
12 12 10 7 4 2 3 3 3 3 3 2 2 1 0 0 0 0 1 2 3 4 6 6 6 5 5 3 1 0 0 0 0 0 0 0 0 0 0 0 0 0 0

GEFSSE_con_probscp_210.txt.gz
Probability
0 0 0 0 0 0 0 0 0 0 0 0 0 0 0 0 0 1 2 2 1 2 3 2 2 1 0 0 0 0 0 0 0 0 0 1 1 1 0 0 0 0 0
0 0 0 0 0 0 0 0 0 0 0 0 0 0 0 0 0 1 1 1 1 2 3 1 1 0 0 0 0 0 0 0 0 0 0 0 0 0 0 0 0 0 0
0 0 0 0 0 0 0 0 0 0 0 0 0 1 1 1 1 0 0 0 1 2 2 1 0 0 0 0 0 0 0 0 0 0 0 0 0 0 0 0 0 0 0
0 0 0 0 0 0 0 0 0 0 0 0 0 1 1 2 1 0 0 0 1 1 1 0 0 0 0 0 0 0 0 0 0 0 0 0 0 0 0 0 0 0 0
0 0 0 0 0 0 0 0 0 0 0 0 0 0 1 1 1 0 0 0 0 0 0 0 0 0 0 0 0 0 0 0 0 0 0 0 0 0 0 0 0 0 0
0 0 0 0 0 0 0 0 0 0 0 0 0 0 0 0 0 0 0 0 0 0 0 0 0 0 0 0 0 0 0 0 0 0 0 0 0 0 0 0 0 0 0
0 0 0 0 0 0 0 0 0 0 0 0 0 0 0 0 1 1 0 0 0 0 0 0 0 0 0 0 0 0 0 0 0 0 0 0 0 0 0 0 0 0 0
1 0 0 0 0 0 0 0 0 0 0 0 0 0 0 0 1 1 0 0 0 0 0 0 0 0 0 0 0 0 0 0 0 0 0 0 0 0 0 0 0 0 0
1 0 0 0 0 0 0 0 0 0 0 0 0 0 0 0 1 1 0 0 0 0 0 0 0 0 0 0 0 0 0 0 0 0 0 0 0 0 0 0 0 0 0
1 0 0 0 0 0 0 0 0 0 0 0 0 0 0 0 0 0 0 0 0 0 0 0 0 0 0 0 0 0 0 0 0 0 0 0 0 0 0 0 0 0 0
1 1 0 0 0 0 0 0 0 0 0 0 0 0 0 0 0 0 0 0 0 0 0 0 0 0 0 0 0 0 0 0 0 0 0 0 0 0 0 0 0 0 0
3 2 1 1 1 1 0 0 0 0 0 0 0 0 0 0 0 0 0 0 0 0 0 0 0 0 0 0 0 0 0 0 0 0 0 0 0 0 0 0 0 0 0
6 4 1 1 2 2 1 0 0 0 0 0 0 0 0 0 0 0 0 0 0 0 0 0 0 0 0 0 0 0 0 0 0 0 0 1 2 1 0 0 0 0 0
8 6 3 2 3 2 1 0 0 0 0 0 0 0 0 0 0 0 0 0 0 0 0 0 0 0 0 0 0 0 0 0 0 0 1 2 3 2 1 0 0 0 0
9 8 5 4 3 3 2 1 1 1 0 0 0 0 0 0 0 0 0 0 0 0 0 0 0 0 0 0 0 0 0 0 0 0 1 2 3 2 1 0 0 0 0
9 8 6 5 4 4 4 2 1 1 1 1 0 0 0 0 0 0 0 0 0 0 0 0 0 0 0 0 0 0 0 0 0 0 1 1 1 1 0 0 0 0 0
6 5 5 5 6 6 5 3 1 1 2 2 1 0 0 0 0 0 0 0 0 0 0 0 0 0 0 0 0 0 0 0 0 0 0 0 0 0 0 0 0 0 0
5 4 4 5 6 6 5 3 2 1 2 2 1 0 0 0 0 0 0 0 0 0 0 0 0 0 0 0 0 0 0 0 0 0 0 0 0 0 0 0 0 0 0
4 4 4 6 7 7 6 5 2 1 2 2 1 0 0 0 0 0 0 0 0 0 0 0 1 1 1 1 1 1 0 0 0 0 1 1 1 1 1 1 0 0 0
2 4 5 7 10 10 9 8 4 2 2 2 1 0 0 0 0 0 0 0 0 0 0 0 1 2 2 2 1 1 0 0 0 0 1 2 2 2 2 1 0 0 0
4 6 9 10 11 12 11 9 7 3 2 1 0 0 0 0 0 0 0 2 2 1 1 1 2 3 3 3 3 2 0 0 0 0 1 1 1 1 1 0 0 0 0
7 9 12 14 13 12 11 10 8 5 4 3 1 1 1 1 1 2 3 4 5 4 3 3 3 3 3 4 4 2 1 1 1 0 0 0 0 0 0 0 0 1 1
7 10 14 17 16 13 11 10 9 7 7 7 5 4 4 4 4 5 6 7 6 5 4 4 3 3 3 3 3 2 1 1 1 0 0 0 0 0 0 0 0 1 2
6 8 13 18 17 13 11 10 9 8 9 10 8 7 7 6 5 5 7 7 6 6 6 5 4 4 4 3 3 3 3 2 2 1 0 0 0 0 0 0 0 1 2
5 8 12 15 16 13 11 10 9 8 8 8 9 9 7 5 4 5 7 8 8 7 6 6 6 6 6 5 4 4 4 5 4 3 2 0 0 0 0 0 0 1 3
5 7 10 14 16 14 11 9 8 7 6 6 8 9 6 4 4 5 7 10 10 7 6 6 6 7 7 6 5 5 6 7 6 5 3 1 0 0 0 1 1 2 4

GEFSSE_con_probscp_216.txt.gz
Probability
0 0 0 0 0 0 0 0 0 0 0 0 0 0 0 0 0 0 1 2 1 2 2 1 0 0 0 0 0 0 0 0 0 0 1 2 2 1 0 0 0 0 0
0 0 0 0 0 0 0 0 0 0 0 0 0 0 0 0 0 1 2 2 1 1 1 0 0 0 0 0 0 0 0 0 0 0 0 1 1 0 0 0 0 0 0
0 0 0 0 0 0 0 0 0 0 0 0 0 0 0 0 0 1 2 3 2 1 0 0 0 0 0 0 0 0 0 0 0 0 0 0 0 0 0 0 0 0 0
0 0 0 0 0 0 0 0 0 0 0 0 0 0 0 1 1 1 2 3 3 2 0 0 0 0 0 0 0 0 0 0 0 0 0 0 0 0 0 0 0 0 0
0 0 0 0 0 0 0 0 0 0 0 0 0 0 1 1 1 2 3 3 3 1 0 0 0 0 0 0 0 0 0 0 0 0 0 0 0 0 0 0 0 0 0
0 0 0 0 0 0 0 0 0 0 0 0 0 1 1 2 2 2 3 3 2 1 0 0 0 0 0 0 0 0 0 0 0 0 0 0 0 0 0 0 0 0 0
0 0 0 0 0 0 0 0 0 0 0 0 0 1 2 2 2 2 2 2 1 0 0 0 0 0 0 0 0 0 0 0 0 0 0 0 0 0 0 0 0 0 0
1 0 0 0 0 0 0 0 0 0 0 0 0 1 2 2 2 1 1 1 0 0 0 0 0 0 0 0 0 0 0 0 0 0 0 0 0 0 0 0 0 0 0
1 0 0 0 0 0 0 0 0 0 0 0 0 0 1 1 1 0 0 0 0 0 0 0 0 0 0 0 0 0 0 1 0 0 0 0 0 1 1 0 0 0 0
1 0 0 0 1 0 0 0 0 0 0 0 0 0 0 0 0 0 0 0 0 0 0 0 0 0 0 0 0 0 0 0 0 0 0 0 1 2 2 1 1 1 0
0 0 0 0 0 0 0 0 0 0 0 0 0 0 0 0 0 0 0 0 0 0 0 0 0 0 0 0 0 0 0 0 0 0 0 1 3 4 3 3 2 2 1
0 0 0 1 1 1 0 0 0 1 1 1 0 0 0 0 0 0 0 1 1 2 1 1 1 1 0 0 1 1 0 0 0 0 1 3 5 5 4 3 3 3 3
1 1 1 2 3 2 1 0 0 1 2 2 1 0 0 0 0 0 0 1 2 2 2 2 2 1 1 1 1 0 0 0 0 0 2 4 5 5 4 3 3 3 3
3 2 2 3 4 4 3 2 1 2 3 3 2 1 0 0 0 0 0 1 1 1 1 1 1 1 0 0 0 0 0 0 0 0 2 3 4 4 5 3 2 2 2
4 3 2 3 5 6 5 5 3 2 3 3 2 1 0 0 0 0 0 0 0 0 0 0 0 1 1 1 1 1 1 0 0 1 2 3 3 4 4 2 1 1 1
5 4 3 5 8 9 8 8 6 3 3 3 1 0 0 0 0 1 1 1 0 0 0 1 1 2 2 2 2 2 2 1 0 1 3 4 4 4 4 3 2 1 1
6 6 6 7 10 11 10 8 7 5 4 3 2 1 1 1 2 3 3 2 2 1 1 2 3 3 3 3 3 3 3 2 2 3 4 3 4 4 5 5 4 3 2
10 10 8 8 11 12 10 8 7 7 6 5 5 5 3 3 4 6 5 3 3 3 3 3 3 3 3 3 3 3 3 3 3 3 3 2 2 3 5 7 7 5 4
16 15 12 10 12 13 12 10 8 8 8 8 9 8 6 5 6 7 6 4 3 3 3 3 3 3 4 3 3 3 3 4 3 2 1 1 1 2 4 6 7 6 5
20 21 18 15 15 15 14 13 11 10 11 13 12 10 8 7 7 8 7 6 4 3 3 3 3 4 4 4 3 3 3 4 4 3 1 1 1 2 3 5 6 6 6
25 26 25 22 20 19 17 16 15 14 14 17 18 14 11 9 10 9 8 7 5 4 4 5 5 5 4 4 3 3 3 4 5 5 4 2 2 3 3 5 7 8 8
32 31 29 28 27 23 19 17 16 15 16 19 20 19 16 14 13 11 10 9 8 8 7 8 7 7 6 5 5 4 3 3 4 6 7 5 3 3 3 5 10 12 11
36 34 31 32 31 26 21 17 15 17 17 18 20 20 20 19 17 14 13 12 11 11 11 10 10 10 8 7 7 6 5 4 5 6 6 5 3 3 3 4 8 12 13
31 31 32 34 31 26 20 17 17 18 19 20 20 21 23 23 20 18 17 15 14 14 14 13 12 13 12 10 10 10 8 7 7 6 5 4 3 3 3 2 4 8 12
23 25 31 35 32 25 20 17 18 19 21 22 22 23 25 25 22 21 20 17 16 16 15 14 14 16 16 14 13 12 11 9 9 7 6 4 3 3 3 3 3 5 8
19 23 31 37 33 26 21 19 19 20 20 21 22 23 26 26 23 21 22 20 17 16 16 14 15 17 19 17 15 13 12 10 9 9 8 6 4 3 4 6 5 5 6

GEFSSE_con_probscp_222.txt.gz
Probability
3 3 3 3 3 3 3 3 3 3 3 2 1 0 0 0 1 2 2 3 5 5 6 6 6 5 5 5 5 4 4 4 5 5 6 5 3 2 2 1 0 0 0
3 3 3 3 3 3 3 3 3 3 3 2 1 0 0 1 2 3 3 3 4 4 4 4 4 5 5 5 5 5 4 5 5 5 5 4 2 1 1 0 0 0 0
3 3 3 3 3 3 3 3 3 3 3 2 1 0 0 1 2 3 3 3 3 3 3 2 3 4 5 5 4 4 4 4 4 3 3 2 1 1 0 0 0 0 0
3 3 3 3 3 3 3 3 3 3 3 2 1 0 0 1 2 3 3 3 3 2 1 1 1 2 3 4 3 3 4 3 2 1 1 0 0 1 0 0 0 0 0
3 3 3 3 3 3 3 3 3 3 3 2 1 0 0 1 3 3 3 3 3 1 0 0 0 1 2 3 3 3 3 2 1 0 0 0 0 0 0 0 0 0 0
3 3 3 3 3 3 3 3 3 3 3 3 1 0 1 2 3 3 3 3 2 1 0 0 0 1 2 3 4 3 2 1 0 0 0 0 0 0 0 0 0 0 0
3 3 3 4 3 3 3 3 3 3 4 3 1 0 1 3 3 3 3 2 1 0 0 0 1 2 3 4 4 3 1 0 0 0 0 0 0 0 0 0 0 0 0
4 4 4 4 4 3 3 3 3 3 4 3 1 1 2 3 3 2 1 1 0 0 0 0 1 2 4 5 4 2 1 0 0 0 0 0 0 0 0 0 0 0 0
6 5 5 4 4 3 3 3 3 2 2 2 2 2 3 3 2 1 0 1 1 1 1 1 1 3 4 5 4 1 0 0 0 0 0 0 0 0 0 0 0 0 0
6 6 6 5 4 3 3 3 2 1 1 2 2 3 3 2 1 0 1 2 2 2 2 2 2 3 4 3 2 1 0 0 0 0 0 0 0 0 0 0 0 0 0
6 6 6 5 4 3 3 3 1 0 0 1 1 2 2 1 0 1 2 3 3 3 3 2 2 2 2 1 1 0 0 0 0 0 0 0 0 0 1 1 0 0 0
6 5 5 4 4 3 3 2 1 0 0 0 0 1 1 0 0 1 2 3 3 3 2 1 0 1 1 0 0 0 0 0 0 0 0 0 0 0 1 1 0 0 0
4 5 5 5 4 3 2 2 1 0 0 0 0 0 0 0 0 0 1 1 2 2 1 0 0 0 0 0 0 0 0 0 0 0 0 0 0 0 1 1 0 0 0
4 5 5 6 5 4 3 2 1 0 0 0 0 0 0 0 0 0 0 0 1 1 0 0 0 0 0 0 1 1 1 0 0 0 0 0 0 0 0 0 0 0 1
5 6 6 6 6 5 3 3 2 1 0 0 0 0 1 1 1 0 0 0 0 0 0 0 0 0 0 1 2 2 2 1 1 0 0 0 0 1 1 2 1 1 2
5 7 8 7 5 4 4 3 2 1 0 0 1 1 2 2 1 0 0 0 0 0 0 0 0 1 1 2 3 3 3 3 2 1 0 0 1 2 3 4 3 3 3
4 6 9 7 5 5 5 4 2 1 0 0 1 2 2 1 1 1 0 0 0 0 0 0 0 1 2 3 3 3 3 3 3 2 0 0 1 2 4 5 5 5 4
3 6 9 8 6 6 5 3 1 0 0 0 1 3 3 2 2 2 1 0 0 0 0 0 0 1 1 3 3 3 3 3 3 1 0 0 0 1 2 4 6 5 4
6 8 9 8 6 5 3 2 0 0 0 0 2 3 3 3 2 2 1 0 0 0 0 0 0 0 1 2 3 3 3 3 2 1 0 0 0 0 0 2 4 4 4
10 9 8 8 6 3 1 1 1 1 0 1 3 3 3 2 2 1 0 0 0 0 0 0 0 0 0 1 1 2 2 1 1 1 0 0 0 0 0 0 1 2 3
11 9 8 8 5 2 0 1 2 2 1 0 2 4 4 3 2 2 1 1 0 0 0 1 1 1 1 1 1 1 1 1 0 0 0 0 0 0 0 0 0 0 1
13 11 8 7 5 2 0 1 2 2 1 1 1 2 4 4 4 4 3 2 1 1 1 1 1 2 2 2 2 1 1 1 1 1 1 1 0 0 0 0 0 0 0
15 13 10 7 5 4 3 2 2 2 2 2 1 2 4 5 6 6 5 4 3 3 3 3 3 3 3 3 3 3 2 2 2 2 2 2 1 1 0 0 0 0 0
16 14 11 8 7 8 7 5 3 3 3 3 3 4 5 7 7 7 6 6 6 6 6 6 4 3 3 3 3 3 3 3 3 3 3 3 3 2 1 1 0 0 0
19 16 14 11 9 9 8 6 5 4 4 3 4 5 7 8 8 7 6 6 7 8 8 6 4 3 4 4 3 3 3 3 3 3 3 3 3 3 2 1 0 0 0
23 21 17 13 10 8 7 6 6 5 4 3 4 6 7 7 7 6 5 5 6 7 7 5 4 4 5 5 4 3 3 3 3 3 3 3 3 3 1 0 0 0 0

GEFSSE_con_probscp_228.txt.gz
Probability
0 0 0 0 0 0 0 1 3 3 3 3 3 3 3 3 3 3 4 6 7 7 7 7 6 6 8 9 7 5 4 4 4 3 3 3 3 3 2 2 2 3 3
0 0 0 0 0 0 1 2 3 3 3 3 3 3 3 3 3 3 4 6 7 5 5 6 7 7 7 8 7 4 4 4 4 3 3 2 2 2 1 1 1 3 3
0 0 0 0 0 0 1 3 3 3 3 3 3 3 3 3 3 4 4 5 6 5 5 7 8 7 6 7 5 4 3 3 3 3 2 1 1 1 0 0 1 3 3
0 0 0 0 0 1 2 3 3 3 3 3 3 3 3 3 4 4 4 4 5 6 5 7 8 7 6 6 5 4 3 2 1 1 0 0 0 0 0 1 2 3 3
0 0 0 0 0 1 3 3 3 3 3 3 3 3 3 3 3 4 3 4 5 6 5 6 7 7 6 5 5 3 2 1 0 0 0 0 0 0 1 2 3 3 3
0 0 0 0 1 2 4 4 4 3 3 3 3 3 3 3 3 3 3 3 4 5 4 5 7 6 5 5 4 2 1 0 0 0 0 1 1 1 1 3 3 3 3
0 0 0 0 1 2 4 4 4 3 3 3 3 3 3 3 3 3 3 3 3 4 4 5 5 4 4 4 3 2 0 0 0 0 0 1 2 3 3 3 3 3 3
0 0 0 0 0 1 2 3 4 3 3 3 3 3 3 3 3 3 3 3 3 3 3 4 3 3 3 3 3 1 0 0 0 0 0 1 2 3 3 3 3 3 3
0 0 0 0 0 1 2 3 3 3 3 3 3 3 3 3 3 3 3 3 3 2 3 3 3 3 3 3 2 1 0 0 0 0 0 0 1 2 3 3 3 3 3
0 0 0 0 0 1 2 3 3 3 3 3 3 3 3 3 3 3 3 3 3 3 3 3 3 3 3 3 2 1 0 0 0 0 0 0 0 1 2 3 3 3 3
1 0 0 0 0 0 1 2 3 3 3 3 3 3 3 2 2 1 2 3 3 3 3 3 4 4 3 3 2 1 0 0 0 0 0 0 0 0 1 3 3 3 2
2 1 0 0 0 0 0 1 1 2 2 2 2 2 1 1 1 1 2 3 3 3 3 4 4 4 2 1 1 1 1 0 0 0 0 0 0 0 1 2 2 1 1
3 2 1 1 0 0 0 0 0 1 1 1 1 1 0 0 0 0 1 2 2 2 2 3 3 2 1 1 2 2 2 1 1 1 0 0 0 0 0 1 1 0 1
3 3 2 2 1 0 0 0 0 0 0 0 0 0 0 0 0 0 0 1 1 1 1 1 1 0 0 1 3 3 3 3 2 2 1 1 1 1 0 1 1 1 2
3 3 2 1 1 0 0 0 0 0 0 0 0 0 0 0 0 0 0 0 0 0 0 0 0 0 0 2 3 3 3 3 3 3 2 1 2 2 1 2 3 3 4
3 2 1 0 0 0 0 0 0 0 0 0 0 0 0 0 0 0 0 0 0 0 0 0 0 0 0 1 3 3 3 3 3 3 2 1 1 1 2 2 3 4 4
2 2 1 1 0 0 0 0 0 0 0 0 0 0 0 0 0 0 0 0 0 0 0 0 0 0 0 1 2 3 3 3 3 3 2 1 0 0 1 1 1 2 3
2 3 4 3 1 0 0 0 0 0 0 0 0 0 0 0 0 0 0 0 0 0 0 0 0 1 2 1 1 3 3 3 2 1 1 0 0 0 0 0 0 1 2
4 5 6 4 1 0 1 0 0 0 0 0 0 0 0 0 0 0 0 0 0 0 0 0 0 1 2 2 1 2 2 2 1 0 0 0 0 0 0 0 0 0 1
5 6 5 2 0 0 0 0 0 0 0 0 0 0 0 0 0 0 0 0 0 0 0 0 0 1 1 1 1 1 1 1 0 0 0 0 0 0 0 0 0 0 0
6 5 3 1 0 0 0 0 0 0 0 0 0 0 0 0 0 0 0 0 0 0 0 0 0 0 0 0 0 0 0 0 0 0 0 0 1 1 1 0 0 0 0
7 6 3 1 0 0 0 0 0 0 0 0 0 0 0 0 0 0 0 0 0 0 0 0 0 0 1 1 1 1 1 1 1 1 1 1 2 2 2 1 0 0 0
8 6 3 1 0 0 0 0 0 0 0 0 0 0 0 0 0 0 0 0 0 0 0 0 1 1 2 2 2 2 2 2 2 2 2 2 2 2 1 1 0 0 0
7 5 2 0 0 0 0 0 0 0 0 0 0 0 0 0 0 0 0 0 0 0 0 0 1 2 3 3 3 3 3 3 3 3 3 2 1 0 1 1 1 1 0
5 3 1 0 0 0 0 0 0 0 0 0 0 0 0 0 0 0 0 0 0 1 0 0 1 1 2 2 2 2 3 3 3 2 1 1 0 0 0 1 2 1 0
3 2 1 0 0 0 0 0 0 0 0 0 0 0 0 0 0 0 0 0 0 1 0 0 0 0 1 1 1 1 2 3 3 1 0 0 0 0 0 1 1 0 0

GEFSSE_con_probscp_234.txt.gz
Probability
0 0 0 0 0 0 0 0 0 0 0 0 0 0 0 0 0 0 1 1 1 3 6 6 5 3 3 4 4 5 6 5 2 1 0 0 0 0 0 0 0 0 0
0 0 0 0 0 0 0 0 0 0 0 0 0 0 0 0 0 0 0 1 1 3 4 5 4 3 4 5 4 4 5 4 3 2 1 0 0 0 0 0 0 0 0
0 0 0 0 0 0 0 0 0 0 0 0 0 0 0 0 0 0 1 2 1 2 4 4 4 4 6 6 4 2 3 3 3 3 2 1 0 0 0 0 0 0 0
0 0 0 0 0 0 0 0 0 0 0 0 0 0 0 0 0 1 3 3 1 2 3 4 4 5 5 4 2 1 1 1 1 2 2 2 1 0 0 0 0 0 0
0 0 0 0 0 0 0 0 0 0 0 0 0 0 0 0 0 1 2 2 1 1 3 3 3 4 3 2 0 0 0 0 0 1 1 1 1 0 0 0 0 0 0
0 0 0 0 0 0 0 0 0 0 0 0 0 0 0 0 0 1 1 1 0 1 2 2 3 3 2 1 0 0 0 0 0 0 0 0 0 0 0 0 0 0 0
0 0 0 0 0 0 0 0 0 1 2 1 0 0 0 1 1 1 1 0 0 1 2 2 2 3 2 1 0 0 0 0 0 0 0 0 0 0 0 0 0 0 0
0 0 0 0 0 0 0 0 1 2 3 2 1 1 1 2 3 2 1 0 1 1 2 2 3 3 1 0 0 0 0 0 0 0 0 0 0 0 0 0 0 0 0
0 0 0 0 0 0 0 1 2 3 3 3 2 2 3 3 3 2 1 1 2 3 3 3 3 3 1 1 1 0 0 0 0 0 0 0 0 0 0 0 0 0 0
0 0 0 0 0 0 0 1 2 3 3 3 3 3 4 3 3 2 1 1 3 4 4 3 3 3 3 2 2 1 1 1 1 0 0 0 0 0 0 0 0 0 0
0 0 0 0 0 0 0 0 1 2 2 3 4 4 4 4 3 2 1 1 3 4 3 3 3 3 3 3 3 3 2 2 2 1 1 1 0 0 0 0 0 0 0
1 1 0 0 0 0 0 0 0 1 1 2 2 3 3 3 3 3 2 2 3 3 3 3 3 3 3 3 3 3 3 3 3 3 3 3 2 1 1 0 0 0 0
2 2 1 0 0 0 0 0 0 1 2 1 1 2 2 3 3 3 3 3 3 3 3 3 3 3 3 3 3 3 3 3 3 3 3 3 3 2 1 0 0 0 0
3 2 1 0 0 0 0 0 1 2 3 3 2 2 3 3 3 3 3 2 2 2 2 3 3 3 3 3 3 3 3 3 3 3 3 3 3 3 1 0 0 0 0
2 1 0 0 1 2 2 1 1 2 3 2 2 3 3 3 3 3 3 2 2 3 3 3 3 3 3 3 3 3 3 3 2 2 3 3 3 2 1 0 1 1 0
1 0 1 1 3 4 3 2 2 2 1 1 1 2 3 3 3 3 3 3 3 3 3 2 2 2 2 2 2 2 2 1 1 1 1 2 2 2 1 1 1 1 1
0 1 2 3 4 4 4 3 2 1 0 1 2 2 2 2 2 3 3 3 3 2 1 1 1 1 1 1 1 0 0 0 0 0 0 1 1 1 2 1 1 1 0
2 3 4 3 3 3 3 3 3 1 1 1 2 2 1 1 1 1 2 2 1 1 0 0 0 0 0 1 1 1 0 0 0 1 1 1 1 1 1 1 1 1 0
4 5 5 4 2 1 2 3 3 3 2 1 1 1 0 0 0 0 1 1 0 0 0 0 0 0 0 1 2 2 1 1 1 2 2 2 2 2 2 2 2 2 1
5 6 6 5 3 1 1 2 3 3 2 2 1 1 0 0 0 0 0 0 0 0 0 0 0 0 0 1 2 2 1 2 3 3 3 3 3 2 2 3 4 4 4
5 6 6 6 3 1 1 2 3 2 1 2 2 1 0 0 0 0 0 0 0 0 0 0 0 0 0 0 1 1 1 2 3 3 3 3 1 1 1 2 3 4 4
5 6 6 6 4 3 2 3 3 2 1 1 1 0 0 0 0 0 0 0 0 0 0 0 0 0 0 0 0 0 0 1 2 2 3 2 1 0 0 1 1 2 3
5 5 6 7 5 4 3 3 2 2 1 0 0 0 0 0 0 0 1 1 1 1 1 1 1 1 1 0 0 0 0 0 0 1 2 2 1 0 0 0 0 0 1
4 3 5 8 8 5 3 2 1 1 1 0 0 0 0 0 0 1 3 4 3 3 3 3 3 3 3 1 0 0 0 1 1 1 1 1 0 0 0 0 0 0 1
1 1 4 8 9 7 4 2 1 1 0 0 0 0 0 0 0 2 5 6 5 5 5 5 6 5 4 3 2 2 1 2 2 2 1 1 1 1 1 1 1 1 2
0 1 4 6 8 8 6 4 2 1 0 0 0 0 0 0 0 2 4 6 5 5 6 7 7 5 5 5 6 4 3 3 3 3 3 3 3 2 2 2 2 2 3

GEFSSE_con_probscp_240.txt.gz
Probability
0 0 0 0 0 0 0 0 0 0 0 0 0 0 0 1 4 5 4 3 3 3 5 8 9 9 10 10 7 6 6 5 4 2 1 0 0 0 0 0 0 0 0
0 0 0 0 0 0 0 0 0 0 0 0 0 0 0 1 2 3 3 3 3 3 4 6 6 7 8 8 7 6 6 4 3 3 1 0 0 0 0 0 0 0 0
0 0 0 0 0 0 0 0 0 0 0 0 0 0 0 1 1 2 2 2 2 2 3 4 4 4 6 7 6 6 5 4 3 3 2 0 0 0 1 0 1 1 1
0 0 0 0 0 0 0 0 0 0 0 0 0 0 0 1 2 2 2 3 2 2 2 3 4 4 4 6 6 6 4 3 3 3 2 0 0 0 0 0 1 2 1
1 1 1 0 0 0 0 0 0 0 0 0 0 0 0 0 1 1 1 2 2 1 1 2 4 4 4 5 5 5 4 3 3 3 2 1 0 0 0 0 1 1 1
1 2 1 1 0 0 0 0 0 0 0 0 0 0 0 0 0 0 0 1 1 1 0 1 3 4 4 3 3 4 3 3 3 3 2 1 0 0 0 0 0 0 0
1 2 3 2 1 0 0 0 0 0 0 0 0 0 0 0 0 0 0 0 1 1 0 1 3 4 4 2 1 2 3 3 3 3 2 1 0 0 0 0 0 0 0
1 2 3 2 1 1 1 1 0 0 0 0 0 0 0 0 0 0 0 0 1 1 0 1 2 4 4 2 0 1 2 2 2 2 1 1 0 0 0 0 0 0 0
0 1 2 1 2 2 3 2 0 0 0 0 0 0 0 0 1 1 1 1 1 1 1 1 2 3 3 2 1 1 1 1 1 0 0 0 0 0 0 0 0 0 0
0 0 0 1 2 3 3 2 1 0 0 0 0 1 1 1 2 2 2 2 2 2 2 2 3 3 3 3 3 2 1 1 0 0 0 0 0 0 0 0 0 0 0
1 0 0 1 2 3 3 4 3 2 2 1 1 2 3 3 2 2 3 3 3 3 3 3 3 3 3 3 3 3 2 2 1 1 0 1 1 1 1 1 0 0 0
1 0 0 0 1 2 4 5 4 3 3 2 2 2 3 3 2 2 2 3 3 3 3 3 3 3 3 2 2 3 3 3 3 2 1 1 2 3 3 2 0 0 0
1 0 0 0 1 2 3 4 3 2 2 2 2 2 3 3 3 2 2 2 3 3 3 3 2 2 1 1 1 2 3 3 3 2 1 1 2 3 3 1 0 0 0
1 0 1 1 1 2 2 2 1 1 1 1 1 2 2 3 3 3 2 2 2 2 2 2 2 1 1 1 2 3 3 3 2 2 2 2 2 1 1 0 0 0 0
2 2 2 2 2 1 2 2 1 1 2 2 1 1 2 3 3 2 2 2 2 1 1 2 2 2 2 2 3 3 3 1 1 2 2 2 2 1 0 0 0 0 0
6 4 3 3 2 2 3 4 3 3 3 2 1 0 1 2 2 3 3 3 2 2 2 3 3 2 2 2 2 2 2 1 0 1 2 2 2 1 1 1 1 1 0
8 7 5 3 2 2 3 4 3 2 2 1 1 0 0 1 1 3 3 2 1 2 2 2 1 1 1 1 0 1 1 1 1 1 2 3 3 3 3 4 4 3 2
9 8 6 2 1 2 3 3 3 2 1 1 1 0 0 0 1 2 2 1 0 1 1 1 0 0 0 0 0 1 2 3 3 3 3 4 4 4 5 5 5 5 4
10 9 7 3 1 3 4 3 3 3 4 2 1 0 0 0 0 1 1 0 0 0 0 0 0 0 0 0 0 1 3 4 4 4 3 3 3 4 4 4 4 5 5
13 11 10 7 4 3 3 4 5 5 5 3 1 0 1 0 0 1 0 0 0 0 0 0 0 0 0 0 0 1 2 3 4 4 3 2 3 3 3 4 5 5 5
17 16 14 13 8 4 2 4 7 7 4 3 2 2 1 1 1 2 1 0 0 0 0 0 0 0 0 0 0 0 1 2 3 4 4 3 3 1 1 3 6 7 7
21 20 18 16 12 6 2 4 8 7 4 3 5 5 4 3 3 2 1 1 0 0 1 1 0 1 1 2 1 1 0 1 2 4 4 4 4 2 1 3 6 9 8
19 18 17 16 14 9 4 3 5 6 4 4 7 8 8 7 6 3 2 2 1 1 2 3 2 3 3 3 2 1 0 0 1 2 3 4 6 6 4 4 7 10 11
12 13 15 16 15 11 6 2 3 5 4 4 7 9 10 10 8 5 4 4 4 4 4 5 6 6 5 4 2 2 1 1 2 2 3 5 8 9 7 6 8 11 13
8 10 15 16 15 13 9 4 3 3 2 3 7 10 11 10 8 7 7 8 8 7 7 8 10 10 9 6 4 3 4 4 4 5 5 6 7 8 7 7 9 12 13
7 10 15 17 15 13 10 7 4 2 1 4 9 11 10 9 8 9 11 12 10 8 8 10 13 13 12 9 5 5 6 7 7 7 6 6 6 6 7 8 10 12 12

GEFSSE_con_probscp_246.txt.gz
Probability
0 0 0 0 0 0 0 0 0 0 0 0 0 1 2 4 5 5 4 2 2 4 8 12 14 13 12 12 12 11 8 8 10 9 6 3 2 1 0 0 0 0 0
0 0 0 0 0 0 0 0 0 0 0 0 0 1 2 4 6 6 4 3 3 6 10 13 15 15 12 12 12 11 9 8 8 8 4 2 1 0 0 0 0 0 0
0 0 0 0 0 0 0 0 0 0 0 0 1 2 3 5 8 7 5 3 4 7 11 12 13 13 12 10 10 10 10 8 7 5 2 0 0 0 0 0 0 0 0
0 0 0 1 0 0 0 0 0 0 0 1 1 3 3 5 6 6 5 4 4 5 8 9 10 10 9 8 7 9 10 8 6 4 1 0 0 0 0 0 0 0 0
0 0 2 3 1 0 0 0 0 0 0 1 2 3 3 3 4 5 5 5 4 3 4 6 8 8 7 6 7 8 9 8 5 2 1 0 0 0 0 0 0 0 0
0 0 2 3 2 1 1 0 0 0 0 1 2 3 3 2 3 4 4 5 5 3 3 5 6 6 6 6 7 8 7 5 2 0 0 0 0 0 0 0 0 0 0
1 0 1 3 3 2 2 1 0 0 0 0 1 2 2 1 1 3 4 4 3 3 3 4 4 4 5 7 8 7 5 3 1 0 0 0 0 0 0 0 0 0 0
2 1 1 2 3 3 2 1 0 0 0 0 0 1 1 0 0 1 1 2 2 3 3 3 3 3 5 6 6 5 3 2 1 0 0 0 0 0 0 0 0 0 0
3 2 1 2 2 2 2 1 1 0 0 0 0 1 1 1 1 1 2 3 4 4 3 3 4 4 5 6 6 4 3 2 1 0 0 0 0 0 0 1 0 0 0
3 2 2 2 1 1 1 1 1 0 0 0 1 2 2 2 3 3 4 6 5 4 3 4 5 6 5 6 7 5 3 2 1 0 0 0 0 0 0 0 0 0 0
2 1 1 1 0 0 0 1 1 0 0 0 1 2 3 2 3 3 5 7 6 4 3 4 5 5 5 5 6 5 4 3 1 0 0 0 0 1 1 0 0 0 0
1 1 0 0 0 0 0 0 0 0 1 1 1 2 2 2 1 2 3 5 5 4 4 3 3 3 3 3 4 3 3 2 1 0 0 0 0 2 3 2 1 0 0
2 1 0 0 0 0 0 0 0 1 2 2 2 2 2 1 0 1 1 2 3 3 3 2 2 2 2 2 2 1 1 1 1 0 0 0 0 1 2 2 1 0 0
2 1 0 0 0 0 0 0 0 1 2 3 3 2 2 1 0 0 0 0 1 1 1 1 1 0 1 1 1 0 0 0 0 0 0 0 0 0 1 1 1 0 0
1 0 0 0 0 0 0 0 0 1 2 3 3 1 1 0 0 0 0 0 0 0 0 0 0 0 0 0 0 0 0 0 0 0 0 0 0 0 0 0 0 0 0
1 1 1 1 0 0 0 0 0 0 1 2 2 1 0 0 0 0 0 0 0 0 0 0 0 0 0 0 0 0 1 1 0 1 1 1 1 1 2 2 2 2 2
3 3 2 1 0 0 0 0 0 0 0 1 1 0 0 0 0 0 0 0 0 0 0 0 0 0 0 0 0 0 1 1 1 2 2 2 2 3 4 4 4 4 4
6 5 3 1 0 0 1 0 0 0 0 0 0 0 0 0 0 0 0 0 0 0 0 0 0 0 0 0 0 1 1 1 1 2 2 2 1 2 3 3 4 4 4
6 5 3 1 0 0 0 0 0 0 0 0 0 0 0 0 0 0 0 0 0 0 0 0 0 0 0 0 1 1 1 0 0 1 1 1 0 0 1 1 2 3 4
5 5 4 3 2 0 0 0 0 0 0 0 0 0 0 0 0 0 0 0 0 0 0 0 0 0 0 0 1 2 1 0 0 0 0 0 0 0 0 0 1 3 4
6 7 7 6 4 2 0 0 0 0 0 0 0 0 0 0 0 0 0 0 0 0 0 0 0 0 0 0 0 1 1 0 0 0 0 0 0 0 0 0 0 1 2
9 10 9 8 6 3 1 0 0 0 0 0 0 0 0 0 0 0 0 0 0 0 0 0 0 0 0 0 0 0 0 0 0 0 0 0 0 0 0 0 0 0 1
10 10 10 9 7 4 2 1 0 0 0 0 0 0 0 0 0 0 0 0 0 0 0 0 0 0 0 0 0 0 0 0 0 0 0 0 0 0 0 0 0 0 0
9 8 8 8 7 6 5 3 0 0 0 0 0 0 0 0 0 0 0 0 0 0 0 0 0 0 0 0 0 0 0 0 0 0 0 0 0 0 0 0 0 0 0
7 7 6 6 6 7 7 4 1 0 0 0 0 0 0 0 0 1 2 2 1 1 1 1 0 0 0 0 1 0 0 0 0 0 0 0 0 0 0 0 0 0 0
6 6 6 6 6 7 6 4 1 0 0 0 0 0 0 0 1 2 3 4 4 3 2 2 1 0 0 0 1 0 0 0 0 0 0 0 0 0 0 1 1 1 0